Weather History for Norfolk, NE

Change the Weather History Date:

Monday, March 25, 2013

  Actual Average Record
Temperature  
Mean Temperature 25 °F 41 °F  
Max Temperature 28 °F 53 °F 83 °F (1910)
Min Temperature 22 °F 29 °F -1 °F (1894)
Degree Days  
Heating Degree Days 40 24  
Month to date heating degree days 852 720  
Since 1 July heating degree days 5773 5813  
Cooling Degree Days 0 0  
Month to date cooling degree days 0 0  
Year to date cooling degree days 0 0  
Moisture  
Dew Point 18 °F    
Average Humidity 78    
Maximum Humidity 88    
Minimum Humidity 68    
Precipitation  
Precipitation T in 0.07 in 1.43 in (1995)
Month to date precipitation 1.09 1.32  
Year to date precipitation 1.99 2.67  
Snow  
Snow T in 0.20 in - ()
Month to date snowfall 5.2 4.2  
Since 1 July snowfall 20.1 27.0  
Snow Depth T in    
Sea Level Pressure  
Sea Level Pressure 30.27 in    
Wind  
Wind Speed 17 mph (NNW)    
Max Wind Speed 28 mph    
Max Gust Speed 33 mph    
Visibility 8 miles    
Events Snow    
T = Trace of Precipitation, MM = Missing Value Source: NWS Daily Summary

Daily Weather History Graph

Daily Weather History Graph

Search for Another Location

Airport:

Trip Planner

Search our weather history database for the weather conditions in past years. The results will help you decide how hot, cold, wet, or windy it might be!

Date:

Astronomy

Mar. 25, 2013 Rise Set
Actual Time 7:23 AM CDT 7:47 PM CDT
Civil Twilight 6:56 AM CDT 8:15 PM CDT
Nautical Twilight 6:23 AM CDT 8:48 PM CDT
Astronomical Twilight 5:49 AM CDT 9:22 PM CDT
Moon 6:20 PM CDT (3/25) 6:09 AM CDT (3/25)
Length of Visible Light 13h 19m
Length of Day
12h 23m
Waxing Gibbous, 96% of the Moon is Illuminated
Mar 25
Waxing Gibbous
Mar 27
Full
Apr 2
Last Quarter
Apr 10
New
Apr 18
First Quarter

Hourly Weather History & Observations

Time (CDT) Temp. Windchill Dew Point Humidity Pressure Visibility Wind Dir Wind Speed Gust Speed Precip Events Conditions
12:06 AM 24.8 °F 10.7 °F 21.2 °F 86% 30.11 in 3.0 mi NNW 19.6 mph 25.3 mph 0.00 in Snow Light Snow
12:56 AM 25.0 °F 12.2 °F 21.0 °F 85% 30.20 in 4.0 mi NNW 16.1 mph 24.2 mph 0.00 in Snow Light Snow
1:08 AM 24.8 °F 10.7 °F 21.2 °F 86% 30.13 in 2.5 mi NNW 19.6 mph 25.3 mph 0.00 in Snow Light Snow
1:50 AM 24.8 °F 11.9 °F 19.4 °F 80% 30.14 in 4.0 mi NNW 16.1 mph 25.3 mph 0.00 in Snow Light Snow
1:56 AM 24.1 °F 11.0 °F 19.9 °F 84% 30.21 in 6.0 mi NNW 16.1 mph - 0.00 in Snow Light Snow
2:25 AM 24.8 °F 10.7 °F 19.4 °F 80% 30.14 in 9.0 mi NNW 19.6 mph 25.3 mph 0.00 in   Overcast
2:34 AM 24.8 °F 11.5 °F 19.4 °F 80% 30.15 in 6.0 mi NNW 17.3 mph - 0.00 in   Overcast
2:56 AM 24.1 °F 10.6 °F 19.0 °F 81% 30.22 in 10.0 mi NNW 17.3 mph 25.3 mph 0.00 in   Overcast
3:56 AM 24.1 °F 11.0 °F 19.0 °F 81% 30.21 in 10.0 mi NW 16.1 mph - N/A   Overcast
4:36 AM 23.0 °F 11.1 °F 19.4 °F 86% 30.15 in 6.0 mi NW 12.7 mph - 0.00 in Snow Light Snow
4:56 AM 23.0 °F 9.2 °F 19.0 °F 85% 30.22 in 10.0 mi NW 17.3 mph - 0.00 in   Overcast
5:08 AM 23.0 °F 9.6 °F 19.4 °F 86% 30.15 in 10.0 mi NW 16.1 mph 26.5 mph N/A   Overcast
5:24 AM 23.0 °F 8.7 °F 19.4 °F 86% 30.15 in 10.0 mi NW 18.4 mph - N/A   Overcast
5:56 AM 23.0 °F 8.7 °F 19.0 °F 85% 30.23 in 4.0 mi NNW 18.4 mph - 0.00 in   Overcast
6:56 AM 21.9 °F 6.9 °F 18.0 °F 85% 30.25 in 4.0 mi NW 19.6 mph 28.8 mph 0.00 in   Overcast
7:56 AM 21.9 °F 7.3 °F 18.0 °F 85% 30.26 in 5.0 mi NW 18.4 mph 26.5 mph 0.00 in   Overcast
8:56 AM 23.0 °F 6.6 °F 17.1 °F 78% 30.28 in 10.0 mi NW 25.3 mph 29.9 mph 0.00 in   Overcast
9:56 AM 24.1 °F 8.7 °F 18.0 °F 77% 30.30 in 10.0 mi NNW 23.0 mph 27.6 mph N/A   Mostly Cloudy
10:07 AM 24.8 °F 9.3 °F 17.6 °F 74% 30.23 in 10.0 mi NNW 24.2 mph - N/A   Mostly Cloudy
10:56 AM 24.1 °F 8.0 °F 18.0 °F 77% 30.31 in 8.0 mi NNW 25.3 mph 33.4 mph 0.00 in   Overcast
11:05 AM 24.8 °F 10.7 °F 17.6 °F 74% 30.24 in 10.0 mi NNW 19.6 mph 33.4 mph 0.00 in   Overcast
11:14 AM 24.8 °F 9.0 °F 17.6 °F 74% 30.25 in 10.0 mi NNW 25.3 mph 31.1 mph 0.00 in   Overcast
11:39 AM 26.6 °F 12.7 °F 17.6 °F 69% 30.25 in 10.0 mi NNW 20.7 mph 33.4 mph 0.00 in   Overcast
11:56 AM 26.1 °F 11.3 °F 18.0 °F 71% 30.32 in 8.0 mi NNW 23.0 mph 29.9 mph 0.00 in Snow Light Snow
12:56 PM 26.1 °F 12.7 °F 18.0 °F 71% 30.33 in 9.0 mi NNW 18.4 mph - 0.00 in Snow Light Snow
1:56 PM 26.1 °F 13.1 °F 19.9 °F 78% 30.33 in 5.0 mi NW 17.3 mph - 0.00 in Snow Light Snow
2:31 PM 26.6 °F 14.7 °F 19.4 °F 74% 30.26 in 4.0 mi NW 15.0 mph - 0.00 in Snow Light Snow
2:56 PM 28.0 °F 17.5 °F 19.9 °F 72% 30.33 in 9.0 mi NW 12.7 mph - 0.00 in   Overcast
3:24 PM 26.6 °F 13.4 °F 17.6 °F 69% 30.26 in 9.0 mi NNW 18.4 mph - 0.00 in Snow Light Snow
3:56 PM 27.0 °F 15.6 °F 19.0 °F 72% 30.33 in 9.0 mi NW 13.8 mph - 0.00 in Snow Light Snow
4:08 PM 26.6 °F 13.4 °F 19.4 °F 74% 30.26 in 2.5 mi NNW 18.4 mph - 0.00 in Snow Light Snow
4:16 PM 26.6 °F 13.4 °F 19.4 °F 74% 30.27 in 7.0 mi NW 18.4 mph - 0.00 in Snow Light Snow
4:56 PM 27.0 °F 14.3 °F 19.0 °F 72% 30.34 in 8.0 mi NW 17.3 mph 21.9 mph 0.00 in Snow Light Snow
5:56 PM 27.0 °F 13.9 °F 16.0 °F 63% 30.34 in 10.0 mi NNW 18.4 mph - 0.00 in   Overcast
6:56 PM 27.0 °F 14.7 °F 17.1 °F 66% 30.36 in 10.0 mi NNW 16.1 mph - N/A   Overcast
7:56 PM 26.1 °F 14.5 °F 17.1 °F 69% 30.38 in 10.0 mi NW 13.8 mph - N/A   Overcast
8:40 PM 24.8 °F 13.4 °F 17.6 °F 74% 30.31 in 9.0 mi NNW 12.7 mph - 0.00 in Snow Light Snow
8:56 PM 25.0 °F 13.6 °F 18.0 °F 75% 30.38 in 9.0 mi NW 12.7 mph - 0.00 in Snow Light Snow
9:08 PM 24.8 °F 14.0 °F 17.6 °F 74% 30.31 in 9.0 mi NW 11.5 mph - 0.00 in Snow Light Snow
9:56 PM 25.0 °F 14.8 °F 17.1 °F 72% 30.39 in 10.0 mi NW 10.4 mph - 0.00 in   Overcast
10:19 PM 24.8 °F 14.0 °F 15.8 °F 69% 30.32 in 10.0 mi NNW 11.5 mph - N/A   Overcast
10:56 PM 25.0 °F 15.5 °F 17.1 °F 72% 30.40 in 10.0 mi NNW 9.2 mph - N/A   Overcast
11:39 PM 24.8 °F 15.3 °F 15.8 °F 69% 30.33 in 10.0 mi North 9.2 mph - N/A   Overcast
11:56 PM 25.0 °F 14.2 °F 15.1 °F 66% 30.40 in 10.0 mi NNW 11.5 mph - N/A   Overcast